Bryce Canyon, UT

7:27 AM MST on December 07, 2019 (GMT -0700)
Bryce Canyon

Weather History for KBCE - October, 2019

Change the Weather History Date:

Thursday, October 3, 2019

  Actual Average Record
Temperature  
Mean Temperature 42 °F -  
Max Temperature 68 °F 64 °F 77 °F (1980)
Min Temperature 19 °F 32 °F 17 °F (2017)
Degree Days  
Heating Degree Days 22    
Moisture  
Dew Point 10 °F    
Average Humidity 29    
Maximum Humidity 52    
Minimum Humidity 10    
Precipitation  
Precipitation 0.00 in - - ()
Sea Level Pressure  
Sea Level Pressure 30.04 in    
Wind  
Wind Speed 8 mph (SW)    
Max Wind Speed 20 mph    
Max Gust Speed 25 mph    
Visibility 10 miles    
Events      
Averages and records for this station are not official NWS values.
T = Trace of Precipitation, MM = Missing Value Source: NWS Daily Summary

Daily Weather History Graph

Daily Weather History Graph

Search for Another Location

Airport or City:

Astronomy

Oct. 03, 2019 Rise Set
Actual Time 7:25 AM MDT 7:08 PM MDT
Civil Twilight 6:59 AM MDT 7:34 PM MDT
Nautical Twilight 6:29 AM MDT 8:05 PM MDT
Astronomical Twilight 5:58 AM MDT 8:35 PM MDT
Moon 12:55 PM MDT (10/3) 10:56 PM MDT (10/3)
Length of Visible Light 12h 35m
Length of Day
11h 43m
Waxing Crescent, 30% of the Moon is Illuminated
Oct 3
Waxing Crescent
Oct 5
First Quarter
Oct 13
Full
Oct 21
Last Quarter
Oct 27
New

Hourly Weather History & Observations

Time (MDT) Temp. Windchill Dew Point Humidity Pressure Visibility Wind Dir Wind Speed Gust Speed Precip Events Conditions
12:53 AM 26.1 °F 20.5 °F 6.1 °F 43% 30.08 in 10.0 mi West 4.6 mph - N/A   Clear
1:53 AM 27.0 °F 19.5 °F 5.0 °F 39% 30.07 in 10.0 mi West 6.9 mph - N/A   Clear
2:53 AM 25.0 °F 19.3 °F 5.0 °F 43% 30.07 in 10.0 mi West 4.6 mph - N/A   Clear
3:53 AM 23.0 °F - 3.9 °F 44% 30.06 in 10.0 mi Calm Calm - N/A   Clear
4:53 AM 19.0 °F 13.9 °F 3.9 °F 52% 30.09 in 10.0 mi WSW 3.5 mph - N/A   Clear
5:53 AM 19.0 °F 11.1 °F 3.0 °F 50% 30.08 in 10.0 mi WSW 5.8 mph - N/A   Clear
6:53 AM 21.0 °F 13.4 °F 5.0 °F 50% 30.10 in 10.0 mi West 5.8 mph - N/A   Clear
7:53 AM 21.9 °F 14.5 °F 6.1 °F 51% 30.13 in 10.0 mi WSW 5.8 mph - N/A   Clear
8:53 AM 36.0 °F 32.1 °F 9.0 °F 33% 30.13 in 10.0 mi WSW 4.6 mph - N/A   Clear
9:53 AM 54.0 °F - 7.0 °F 15% 30.09 in 10.0 mi SE 13.8 mph - N/A   Clear
10:53 AM 57.0 °F - 15.1 °F 19% 30.07 in 10.0 mi SSE 11.5 mph - N/A   Clear
11:53 AM 60.1 °F - 19.0 °F 20% 30.04 in 10.0 mi SSE 17.3 mph 25.3 mph N/A   Clear
12:53 PM 62.1 °F - 16.0 °F 17% 30.03 in 10.0 mi SSE 18.4 mph 25.3 mph N/A   Clear
1:53 PM 63.0 °F - 15.1 °F 16% 30.00 in 10.0 mi SSE 19.6 mph 25.3 mph N/A   Clear
2:53 PM 64.9 °F - 12.0 °F 13% 29.97 in 10.0 mi SSE 15.0 mph 24.2 mph N/A   Clear
3:53 PM 66.9 °F - 7.0 °F 10% 29.97 in 10.0 mi South 12.7 mph 20.7 mph N/A   Clear
4:51 PM 66.2 °F - 12.2 °F 12% 30.17 in 10.0 mi SW 13.8 mph 20.7 mph N/A   Clear
4:53 PM 66.9 °F - 14.0 °F 13% 29.98 in 10.0 mi SW 17.3 mph - N/A   Clear
5:53 PM 64.9 °F - 12.9 °F 13% 29.98 in 10.0 mi South 12.7 mph 17.3 mph N/A   Clear
6:53 PM 60.1 °F - 10.0 °F 14% 29.99 in 10.0 mi SSW 11.5 mph 25.3 mph N/A   Clear
7:53 PM 53.1 °F - 12.0 °F 20% 30.02 in 10.0 mi SSW 10.4 mph - N/A   Clear
8:53 PM 43.0 °F 41.3 °F 12.9 °F 30% 30.01 in 10.0 mi SW 3.5 mph - N/A   Clear
9:53 PM 36.0 °F 32.1 °F 10.9 °F 36% 29.97 in 10.0 mi West 4.6 mph - N/A   Clear
10:53 PM 37.0 °F 31.0 °F 14.0 °F 39% 29.95 in 10.0 mi West 8.1 mph - N/A   Clear
11:53 PM 37.0 °F 29.8 °F 14.0 °F 39% 29.94 in 10.0 mi West 10.4 mph - N/A   Clear